CW0630 Weather Reports


Display with metric or nautical units.
time (UTC)temp
F
wind
direction
speed
MPH
gust
MPH
rain 1hr
in
rain 24hr
in
rain mn
in
humidity
%
barometer
mb
20240224061014 40 227 0.0 0.0 0.00 0.27 0.00 95 1000.9
20240224051014 40 222 1.0 1.0 0.00 0.27 0.27 95 1000.7
20240224041026 40 217 0.0 2.0 0.00 0.27 0.27 95 1000.8
20240224031014 41 215 0.0 1.0 0.00 0.27 0.27 95 1001.0
20240224021025 43 216 1.0 1.0 0.00 0.27 0.27 95 1000.9
20240224011032 44 221 0.0 0.0 0.00 0.27 0.27 94 1000.9
20240224001015 44 267 0.0 1.0 0.00 0.27 0.27 94 1000.5
20240223231026 45 269 0.0 1.0 0.00 0.27 0.27 93 999.9
20240223221020 47 289 2.0 3.0 0.00 0.27 0.27 92 999.7
20240223211023 48 5 2.0 3.0 0.00 0.27 0.27 91 998.3
20240223201025 48 43 2.0 2.0 0.04 0.27 0.27 91 998.1
20240223191030 48 22 1.0 2.0 0.10 0.23 0.23 90 998.0
20240223181015 49 360 3.0 3.0 0.07 0.14 0.14 89 998.3
20240223171032 51 275 0.0 0.0 0.05 0.08 0.08 88 998.6
20240223161027 52 323 3.0 3.0 0.02 0.03 0.03 84 998.8
20240223151039 53 219 2.0 3.0 0.01 0.01 0.01 79 998.9
20240223141032 54 195 3.0 8.0 0.00 0.00 0.00 63 999.0
20240223131017 53 197 1.0 2.0 0.00 0.00 0.00 65 998.8
20240223121012 51 181 2.0 2.0 0.00 0.00 0.00 67 999.3
20240223111013 52 179 0.0 3.0 0.00 0.00 0.00 64 998.9
20240223101022 52 183 4.0 4.0 0.00 0.00 0.00 63 999.4
20240223091015 53 190 1.0 1.0 0.00 0.00 0.00 61 999.8
20240223081025 54 192 3.0 3.0 0.00 0.00 0.00 58 1000.4
20240223071029 55 191 2.0 4.0 0.00 0.00 0.00 56 1001.3